DW5560 Weather Reports


Display with metric or nautical units.
time (UTC)temp
F
wind
direction
speed
MPH
gust
MPH
rain 1hr
in
rain 24hr
in
rain mn
in
humidity
%
barometer
mb
20260906103054 89 346 7.0 18.0 0.00 0.00 0.00 26 1017.4
20260906102048 88 45 9.0 16.0 0.00 0.00 0.00 27 1017.5
20260906101026 89 319 6.0 14.0 0.00 0.00 0.00 28 1017.5
20260906100019 89 360 7.0 14.0 0.00 0.00 0.00 28 1017.7
20260906095033 88 360 8.0 20.0 0.00 0.00 0.00 27 1017.7
20260906094027 89 344 7.0 15.0 0.00 0.00 0.00 28 1017.7
20260906093024 88 327 6.0 14.0 0.00 0.00 0.00 27 1017.8
20260906092037 88 319 9.0 14.0 0.00 0.00 0.00 27 1017.7
20260906091032 88 360 7.0 17.0 0.00 0.00 0.00 28 1017.9
20260906090027 87 347 7.0 17.0 0.00 0.00 0.00 28 1017.8
20260906085026 87 323 10.0 17.0 0.00 0.00 0.00 29 1017.8
20260906084040 87 10 9.0 17.0 0.00 0.00 0.00 28 1017.9
20260906083034 87 326 10.0 14.0 0.00 0.00 0.00 25 1017.9
20260906082018 87 338 9.0 17.0 0.00 0.00 0.00 24 1017.7
20260906081037 87 348 9.0 14.0 0.00 0.00 0.00 23 1017.7
20260906080050 87 342 4.0 15.0 0.00 0.00 0.00 25 1017.8
20260906075024 87 34 6.0 15.0 0.00 0.00 0.00 25 1017.9
20260906074022 87 360 9.0 15.0 0.00 0.00 0.00 24 1017.7
20260906073037 86 311 9.0 15.0 0.00 0.00 0.00 25 1017.6
20260906072030 86 342 7.0 16.0 0.00 0.00 0.00 25 1017.6
20260906071044 85 327 11.0 18.0 0.00 0.00 0.00 25 1017.5
20260906070057 85 325 8.0 17.0 0.00 0.00 0.00 27 1017.5
20260906065034 84 350 5.0 11.0 0.00 0.00 0.00 33 1017.5
20260906064029 82 327 5.0 12.0 0.00 0.00 0.00 36 1017.6
20260906063022 82 24 5.0 12.0 0.00 0.00 0.00 36 1017.5
20260906062057 82 315 6.0 11.0 0.00 0.00 0.00 36 1017.3
20260906061035 81 325 8.0 14.0 0.00 0.00 0.00 35 1017.3
20260906060029 80 343 7.0 12.0 0.00 0.00 0.00 37 1017.3
20260906055024 80 360 4.0 13.0 0.00 0.00 0.00 37 1017.2
20260906054043 80 360 7.0 14.0 0.00 0.00 0.00 36 1017.1
20260906053037 79 9 7.0 14.0 0.00 0.00 0.00 38 1016.9
20260906052032 79 9 7.0 11.0 0.00 0.00 0.00 37 1017.0
20260906051027 80 11 5.0 14.0 0.00 0.00 0.00 35 1016.9
20260906050025 79 345 5.0 11.0 0.00 0.00 0.00 36 1016.7
20260906045019 78 21 5.0 11.0 0.00 0.00 0.00 37 1016.6
20260906044033 78 338 5.0 12.0 0.00 0.00 0.00 35 1016.6
20260906043033 78 344 5.0 8.0 0.00 0.00 0.00 35 1016.5
20260906042027 77 313 5.0 9.0 0.00 0.00 0.00 36 1016.4
20260906041022 76 355 5.0 10.0 0.00 0.00 0.00 38 1016.4
20260906040034 76 9 4.0 9.0 0.00 0.00 0.00 37 1016.4
20260906035031 76 344 5.0 9.0 0.00 0.00 0.00 37 1016.3
20260906034026 76 43 5.0 8.0 0.00 0.00 0.00 37 1016.3
20260906033044 76 344 4.0 8.0 0.00 0.00 0.00 39 1016.3
20260906032037 75 5 4.0 8.0 0.00 0.00 0.00 40 1016.3
20260906031057 76 5 5.0 11.0 0.00 0.00 0.00 41 1016.3
20260906030029 75 360 5.0 9.0 0.00 0.00 0.00 43 1016.3
20260906025023 75 355 4.0 8.0 0.00 0.00 0.00 45 1016.2
20260906024018 75 15 3.0 6.0 0.00 0.00 0.00 46 1016.2
20260906023017 76 360 4.0 8.0 0.00 0.00 0.00 45 1016.1
20260906022031 75 5 4.0 9.0 0.00 0.00 0.00 47 1016.2
20260906021027 76 14 6.0 9.0 0.00 0.00 0.00 46 1016.2
20260906020022 76 360 5.0 10.0 0.00 0.00 0.00 44 1016.3
20260906015041 75 325 6.0 12.0 0.00 0.00 0.00 44 1016.3
20260906014036 75 360 6.0 9.0 0.00 0.00 0.00 46 1016.4
20260906013030 74 336 4.0 8.0 0.00 0.00 0.00 46 1016.4
20260906012045 74 347 4.0 8.0 0.00 0.00 0.00 49 1016.3
20260906011024 75 355 3.0 8.0 0.00 0.00 0.00 46 1016.4
20260906010017 75 26 4.0 6.0 0.00 0.00 0.00 45 1016.3
20260906005033 75 344 3.0 6.0 0.00 0.00 0.00 45 1016.5
20260906004027 75 5 4.0 6.0 0.00 0.00 0.00 46 1016.5
20260906003022 75 355 3.0 5.0 0.00 0.00 0.00 48 1016.4
20260906002039 75 5 4.0 8.0 0.00 0.00 0.00 46 1016.4
20260906001033 75 5 4.0 9.0 0.00 0.00 0.00 45 1016.4
20260906000029 75 9 3.0 6.0 0.00 0.00 0.00 44 1016.5
20260905235029 75 15 4.0 8.0 0.00 0.00 0.00 43 1016.4
20260905234046 76 20 4.0 8.0 0.00 0.00 0.00 39 1016.4
20260905233021 76 29 3.0 8.0 0.00 0.00 0.00 40 1016.6
20260905232033 76 9 4.0 10.0 0.00 0.00 0.00 41 1016.8
20260905231033 76 333 3.0 9.0 0.00 0.00 0.00 41 1016.8
20260905230030 76 12 4.0 9.0 0.00 0.00 0.00 41 1016.7
20260905225025 75 17 2.0 8.0 0.00 0.00 0.00 42 1016.7
20260905224020 75 5 4.0 6.0 0.00 0.00 0.00 42 1016.6
20260905223020 75 350 4.0 7.0 0.00 0.00 0.00 42 1016.9
20260905222056 76 37 3.0 9.0 0.00 0.00 0.00 43 1017.0
20260905221028 75 14 4.0 6.0 0.00 0.00 0.00 44 1016.9
20260905220022 76 360 4.0 6.0 0.00 0.00 0.00 43 1016.8
20260905215021 76 341 4.0 6.0 0.00 0.00 0.00 42 1016.8
20260905214055 75 23 3.0 7.0 0.00 0.00 0.00 47 1017.0
20260905213030 76 360 4.0 11.0 0.00 0.00 0.00 46 1016.9
20260905212026 75 14 6.0 10.0 0.00 0.00 0.00 49 1017.0
20260905211025 75 28 5.0 10.0 0.00 0.00 0.00 56 1017.0
20260905210041 75 14 6.0 10.0 0.00 0.00 0.00 57 1017.0
20260905205035 75 26 4.0 9.0 0.00 0.00 0.00 56 1017.2
20260905204031 75 28 4.0 7.0 0.00 0.00 0.00 53 1017.3
20260905203030 76 37 3.0 10.0 0.00 0.00 0.00 50 1017.2
20260905202046 76 44 6.0 10.0 0.00 0.00 0.00 47 1017.1
20260905201022 77 342 4.0 8.0 0.00 0.00 0.00 43 1017.2
20260905200022 78 13 3.0 6.0 0.00 0.00 0.00 38 1017.3
20260905195034 78 339 3.0 11.0 0.00 0.00 0.00 36 1017.4
20260905194049 79 341 3.0 12.0 0.00 0.00 0.00 35 1017.4
20260905193022 79 316 7.0 11.0 0.00 0.00 0.00 36 1017.4
20260905192022 79 298 7.0 13.0 0.00 0.00 0.00 38 1017.5
20260905191035 79 327 9.0 15.0 0.00 0.00 0.00 39 1017.4
20260905190030 78 343 9.0 13.0 0.00 0.00 0.00 40 1017.5
20260905185026 78 339 6.0 12.0 0.00 0.00 0.00 41 1017.5
20260905184026 78 350 6.0 12.0 0.00 0.00 0.00 40 1017.4
20260905183020 78 50 7.0 13.0 0.00 0.00 0.00 42 1017.4
20260905182035 78 339 8.0 14.0 0.00 0.00 0.00 42 1017.3
20260905181034 78 342 7.0 12.0 0.00 0.00 0.00 44 1017.3
20260905180030 78 341 7.0 13.0 0.00 0.00 0.00 45 1017.2
20260905175023 79 313 9.0 15.0 0.00 0.00 0.00 43 1017.1
20260905174037 79 338 9.0 15.0 0.00 0.00 0.00 42 1017.1
20260905173056 79 50 11.0 17.0 0.00 0.00 0.00 43 1016.9
20260905172027 79 329 10.0 16.0 0.00 0.00 0.00 42 1016.8
20260905171023 79 349 8.0 15.0 0.00 0.00 0.00 43 1016.8
20260905170056 79 304 8.0 17.0 0.00 0.00 0.00 43 1016.7
20260905165031 79 323 8.0 21.0 0.00 0.00 0.00 42 1016.5
20260905164043 80 301 10.0 20.0 0.00 0.00 0.00 42 1016.4
20260905163036 80 340 12.0 21.0 0.00 0.00 0.00 41 1016.3
20260905162027 80 338 12.0 18.0 0.00 0.00 0.00 40 1016.4
20260905161021 81 19 10.0 17.0 0.00 0.00 0.00 39 1016.4
20260905160058 81 344 9.0 17.0 0.00 0.00 0.00 38 1016.4
20260905155031 81 9 9.0 18.0 0.00 0.00 0.00 38 1016.3
20260905154024 82 350 10.0 17.0 0.00 0.00 0.00 38 1016.2
20260905153019 82 9 8.0 16.0 0.00 0.00 0.00 39 1016.3
20260905152038 82 9 9.0 17.0 0.00 0.00 0.00 40 1016.2
20260905151033 82 56 9.0 17.0 0.00 0.00 0.00 40 1016.2
20260905150023 83 342 10.0 22.0 0.00 0.00 0.00 40 1016.1
20260905145058 83 322 11.0 16.0 0.00 0.00 0.00 41 1016.0
20260905144034 84 343 10.0 26.0 0.00 0.00 0.00 40 1015.8
20260905143049 84 351 10.0 17.0 0.00 0.00 0.00 41 1015.8
20260905142021 84 313 11.0 17.0 0.00 0.00 0.00 41 1015.8
20260905141034 84 61 6.0 21.0 0.00 0.00 0.00 40 1015.5
20260905140033 84 342 11.0 21.0 0.00 0.00 0.00 40 1015.5
20260905135027 85 335 11.0 19.0 0.00 0.00 0.00 39 1015.4
20260905134041 85 30 6.0 18.0 0.00 0.00 0.00 41 1015.5
20260905133034 84 9 13.0 22.0 0.00 0.00 0.00 41 1015.4
20260905132032 85 348 8.0 20.0 0.00 0.00 0.00 41 1015.4
20260905131028 85 50 11.0 21.0 0.00 0.00 0.00 41 1015.3
20260905130038 85 323 10.0 19.0 0.00 0.00 0.00 41 1015.3
20260905125036 85 329 10.0 22.0 0.00 0.00 0.00 40 1015.2
20260905124028 85 325 8.0 18.0 0.00 0.00 0.00 40 1015.2
20260905123021 85 24 10.0 17.0 0.00 0.00 0.00 41 1015.3
20260905122034 85 317 11.0 24.0 0.00 0.00 0.00 42 1015.1
20260905121033 85 331 13.0 20.0 0.00 0.00 0.00 41 1015.4
20260905120026 86 5 8.0 26.0 0.00 0.00 0.00 41 1015.4
20260905115022 85 12 12.0 22.0 0.00 0.00 0.00 43 1015.4
20260905114037 85 355 10.0 22.0 0.00 0.00 0.00 43 1015.5
20260905113036 84 329 14.0 31.0 0.00 0.00 0.00 43 1015.4
20260905112027 85 280 10.0 23.0 0.00 0.00 0.00 42 1015.4
20260905111019 85 348 13.0 28.0 0.00 0.00 0.00 43 1015.2
20260905110034 85 317 11.0 24.0 0.00 0.00 0.00 43 1015.3
20260905105032 86 311 13.0 20.0 0.00 0.00 0.00 42 1015.5
20260905104026 86 284 8.0 20.0 0.00 0.00 0.00 43 1015.6